DW9332 Weather Reports


Display with metric or nautical units.
time (UTC)temp
F
wind
direction
speed
MPH
gust
MPH
rain 1hr
in
rain 24hr
in
rain mn
in
humidity
%
barometer
mb
20260506101536 58 200 4.0 14.0 0.00 0.00 0.00 89 1010.3
20260506100041 58 188 5.0 18.0 0.00 0.00 0.00 89 1010.4
20260506094534 58 189 3.0 11.0 0.00 0.00 0.00 89 1010.3
20260506093029 58 190 6.0 16.0 0.00 0.00 0.00 89 1010.2
20260506091529 58 181 7.0 17.0 0.00 0.00 0.00 89 1010.3
20260506090030 58 165 4.0 11.0 0.00 0.00 0.00 88 1010.4
20260506084525 58 165 6.0 13.0 0.00 0.00 0.00 88 1010.6
20260506083035 58 155 6.0 13.0 0.00 0.00 0.00 87 1010.7
20260506081520 58 127 3.0 10.0 0.00 0.00 0.00 87 1010.8
20260506073015 58 154 5.0 15.0 0.00 0.00 0.00 86 1010.9
20260506071520 58 181 5.0 18.0 0.00 0.00 0.00 85 1010.9
20260506061515 59 191 7.0 16.0 0.00 0.00 0.00 84 1010.8
20260506044512 61 206 6.0 25.0 0.00 0.00 0.00 80 1011.1
20260506043016 61 242 4.0 19.0 0.00 0.00 0.00 79 1011.2
20260506041512 62 159 7.0 22.0 0.00 0.00 0.00 78 1011.1
20260506040016 62 226 5.0 23.0 0.00 0.00 0.00 78 1011.1
20260506034512 62 173 6.0 16.0 0.00 0.00 0.00 77 1011.0
20260506033013 62 259 7.0 26.0 0.00 0.00 0.00 77 1011.0
20260506031511 63 135 6.0 19.0 0.00 0.00 0.00 77 1010.9
20260506030010 63 160 7.0 17.0 0.00 0.00 0.00 76 1011.2
20260506024523 63 201 10.0 24.0 0.00 0.00 0.00 76 1011.0
20260506023009 63 247 6.0 16.0 0.00 0.00 0.00 76 1011.1
20260506021514 63 220 7.0 22.0 0.00 0.00 0.00 74 1011.2
20260506020010 64 192 8.0 21.0 0.00 0.00 0.00 72 1011.2
20260506014520 65 183 10.0 23.0 0.00 0.00 0.00 69 1010.9
20260506013009 65 266 5.0 28.0 0.00 0.00 0.00 68 1010.7
20260506011519 66 155 7.0 26.0 0.00 0.00 0.00 68 1010.7
20260506010012 65 207 6.0 20.0 0.00 0.00 0.00 68 1010.3
20260506004508 66 183 6.0 22.0 0.00 0.00 0.00 68 1010.1
20260506003007 65 197 5.0 24.0 0.00 0.00 0.00 68 1010.1
20260506001510 64 209 6.0 24.0 0.00 0.00 0.00 69 1010.0
20260506000007 65 240 6.0 22.0 0.00 0.00 0.00 69 1009.8
20260505234512 65 188 5.0 24.0 0.00 0.00 0.00 68 1009.6
20260505233007 66 198 8.0 24.0 0.00 0.00 0.00 66 1009.4
20260505231507 66 189 9.0 23.0 0.00 0.00 0.00 65 1009.1
20260505230007 66 187 6.0 25.0 0.00 0.00 0.00 65 1008.9
20260505224506 66 189 6.0 18.0 0.00 0.00 0.00 65 1009.1
20260505223007 67 182 7.0 30.0 0.00 0.00 0.00 64 1009.0
20260505221506 68 255 4.0 21.0 0.00 0.00 0.00 64 1008.8
20260505220005 68 151 7.0 21.0 0.00 0.00 0.00 63 1008.7
20260505214505 69 194 8.0 27.0 0.00 0.00 0.00 62 1008.7
20260505213006 69 171 7.0 17.0 0.00 0.00 0.00 62 1008.6
20260505211513 69 206 6.0 25.0 0.00 0.00 0.00 62 1008.6
20260505210006 69 195 7.0 20.0 0.00 0.00 0.00 63 1008.4
20260505204503 69 202 8.0 21.0 0.00 0.00 0.00 62 1008.4
20260505203002 69 200 6.0 13.0 0.00 0.00 0.00 63 1008.5
20260505201502 71 182 4.0 13.0 0.00 0.00 0.00 62 1008.6
20260505200002 71 184 7.0 19.0 0.00 0.00 0.00 61 1008.7
20260505194559 70 178 5.0 21.0 0.00 0.00 0.00 62 1008.9
20260505193057 72 153 3.0 11.0 0.00 0.00 0.00 62 1009.0
20260505191557 71 177 7.0 17.0 0.00 0.00 0.00 63 1009.3
20260505190054 72 182 4.0 17.0 0.00 0.00 0.00 63 1009.6
20260505184553 71 181 5.0 19.0 0.00 0.00 0.00 63 1009.7
20260505183052 73 153 4.0 10.0 0.00 0.00 0.00 60 1009.7
20260505181551 71 195 6.0 16.0 0.00 0.00 0.00 64 1009.9
20260505180056 71 171 4.0 14.0 0.00 0.00 0.00 62 1010.1
20260505174550 70 181 6.0 14.0 0.00 0.00 0.00 64 1010.1
20260505173049 70 150 8.0 15.0 0.00 0.00 0.00 64 1010.1
20260505171547 72 196 4.0 11.0 0.00 0.00 0.00 62 1010.3
20260505170047 71 225 5.0 12.0 0.00 0.00 0.00 63 1010.2
20260505164545 71 195 5.0 15.0 0.00 0.00 0.00 62 1010.4
20260505163043 72 169 4.0 13.0 0.00 0.00 0.00 62 1010.5
20260505161543 73 176 5.0 10.0 0.00 0.00 0.00 61 1010.5
20260505153043 71 118 6.0 15.0 0.00 0.00 0.00 63 1010.9
20260505151539 69 220 5.0 14.0 0.00 0.00 0.00 65 1011.3
20260505124603 62 261 2.0 9.0 0.00 0.00 0.00 78 1011.0
20260505123058 62 165 2.0 10.0 0.00 0.00 0.00 78 1011.0
20260505121557 61 138 4.0 9.0 0.00 0.00 0.00 80 1011.1
20260505120106 59 167 2.0 7.0 0.00 0.00 0.00 83 1011.1
20260505114554 59 160 3.0 8.0 0.00 0.00 0.00 84 1011.3
20260505113054 58 197 1.0 7.0 0.00 0.00 0.00 87 1011.4
20260505111547 56 182 3.0 8.0 0.00 0.00 0.00 89 1011.4